www.pogodaiklimat.ru

Погода и климат >> Архив погоды >> Малайзия >> Куантане


ПОГОДА в Куантане

  • Прогноз погоды в Куантане
  • Монитор погоды в Куантане

АРХИВ ПОГОДЫ в Куантане

Время (UTC), дата Ветер
(напр.,м/с)
 
Видим.   Явления Облачность Т
(С)
Тd
(С)
f
(%)
Тe
(С)
Тes
(С)
Комфортность P
(гПа)
Po
(гПа)
Тmin
(С)
Tmax
(С)
R
(мм)
R24
(мм)
S
(см)
03 15.08 Ю 2 12 км мгла 9/1 570 м
[Cu hum Ac trans Ci sp]
+31.1 +25.8 73 +46 +54 опасность
перегрева
1012.5 1010.7
06 15.08 Ю 3 12 км мгла 9/5 600 м
[Cu med, cong Ac lent Ci sp]
+33.4 +25.7 64 +48 +54 опасность
перегрева
1010.3 1008.5
09 15.08 В 3 10 км мгла 9/5 600 м
[Cu med, cong Ac lent Ci sp]
+32.0 +27.0 75 +50 +52 опасность
перегрева
1007.9 1006.2
12 15.08 В 1 12 км зарница 9/5 500 м
[Cb cap Ac trans Ci sp]
+28.7 +25.7 84 +43 +43 опасность
перегрева
1009.7 1007.9 +34.1
15 15.08 штиль 0 12 км зарница 9/5 500 м
[Cb cap Ac trans Ci sp]
+25.7 +23.4 87 +35 +35 очень
душно
1011.7 1009.9
18 15.08 штиль 0 11 км мгла 9/4 720 м
[Sc diur, vesp Ac trans Ci sp]
+24.3 +23.2 94 +33 +33 очень
душно
1010.5 1008.7
21 15.08 штиль 0 12 км мгла 9/4 300 м
[Sc Ac trans Ci sp]
+24.5 +23.3 93 +33 +33 очень
душно
1009.9 1008.1
00 16.08 штиль 0 12 км мгла 9/1 1000 м
[Cu hum Ac trans Ci sp]
+25.7 +23.7 89 +35 +36 очень
душно
1011.5 1009.7 +24.1
03 16.08 Ю 3 12 км мгла 9/3 600 м
[Cu med, cong Ac trans Ci sp]
+30.4 +24.6 71 +43 +49 опасность
перегрева
1012.2 1010.4
06 16.08 Ю 3 9000 м мгла 9/4 600 м
[Cu med, cong Ac trans Ci sp]
+32.6 +25.9 68 +48 +55 опасность
перегрева
1010.1 1008.3
09 16.08 З 6 900 м гроза, ливневой дождь 9/4 480 м
[Cb cap Ac trans Ci sp]
+24.5 +23.4 94 +33 +34 очень
душно
1009.5 1007.7
12 16.08 штиль 0 9000 м слаб. дождь {гроза} 9/4 500 м
[Cb cap Ac trans Ci sp]
+25.1 +23.8 93 +34 +34 очень
душно
1010.1 1008.3 +33.8 37
15 16.08 штиль 0 12 км мгла 9/3 720 м
[Sc Ac trans Ci sp]
+24.3 +23.4 95 +33 +33 очень
душно
1011.8 1010.0
18 16.08 штиль 0 10 км мгла 9/3 720 м
[Sc Ac trans Ci sp]
+24.1 +23.0 94 +32 +32 очень
душно
1011.3 1009.5 0.0
21 16.08 штиль 0 12 км мгла 9/3 750 м
[Sc Ac trans Ci sp]
+23.4 +22.5 95 +32 +32 очень
душно
1010.4 1008.6
00 17.08 штиль 0 12 км мгла 9/1 1000 м
[Sc Ac trans Ci sp]
+24.2 +23.0 93 +32 +33 очень
душно
1011.9 1010.1 +23.1 37
03 17.08 Ю 2 14 км мгла 9/1 600 м
[Cu hum Ac trans Ci sp]
+30.2 +24.8 73 +43 +51 опасность
перегрева
1012.5 1010.7
06 17.08 Ю 1 4000 м мгла 9/3 570 м
[Cu med, cong Ac trans Ci sp]
+32.7 +26.0 68 +48 +58 опасность
перегрева
1010.0 1008.2
09 17.08 Ю 3 8000 м слаб. ливневой дождь 9/5 500 м
[Cb cap Ac trans Ci sp]
+28.7 +23.7 74 +39 +41 очень
душно
1008.9 1007.1
12 17.08 штиль 0 9000 м мгла 9/3 720 м
[Sc Ac trans Ci sp]
+26.0 +23.3 85 +35 +35 очень
душно
1010.3 1008.5 +33.6 0.0
15 17.08 штиль 0 8000 м мгла 8/3 720 м
[Sc Ac trans Ci sp]
+24.4 +22.8 91 +32 +32 очень
душно
1011.6 1009.8
18 17.08 штиль 0 8000 м мгла 8/3 750 м
[Sc Ac trans Ci sp]
+24.1 +22.6 91 +32 +32 очень
душно
1011.5 1009.7
21 17.08 штиль 0 6000 м мгла 9/3 750 м
[Sc Ac trans Ci sp]
+24.1 +22.6 91 +32 +32 очень
душно
1010.9 1009.1
00 18.08 штиль 0 7000 м мгла 9/1 1000 м
[Sc Ac trans Ci sp]
+24.7 +23.0 90 +33 +34 очень
душно
1012.3 1010.5 +23.9 0.2
03 18.08 Ю 2 13 км мгла 9/4 660 м
[Cu med, cong Ac trans Ci sp]
+30.6 +25.4 74 +45 +51 опасность
перегрева
1013.0 1011.2
06 18.08 ЮВ 3 12 км мгла 9/5 500 м
[Cb cap Ac trans Ci sp]
+32.3 +26.0 69 +48 +53 опасность
перегрева
1010.5 1008.7
09 18.08 В 4 9000 м мгла 9/3 570 м
[Cu med, cong Ac trans Ci sp]
+31.2 +25.8 73 +46 +48 опасность
перегрева
1008.8 1007.0
12 18.08 ЮВ 2 9000 м мгла 9/3 750 м
[Sc Ac trans Ci sp]
+28.5 +25.3 83 +42 +42 опасность
перегрева
1010.9 1009.1 +33.2
15 18.08 штиль 0 8000 м мгла 8/1 750 м
[Sc Ac trans Ci sp]
+26.9 +24.8 88 +38 +38 очень
душно
1012.5 1010.7
18 18.08 штиль 0 7000 м мгла 8/1 750 м
[Sc Ac trans Ci sp]
+25.6 +24.4 93 +36 +36 очень
душно
1011.9 1010.1
21 18.08 штиль 0 7000 м мгла 9/3 750 м
[Sc Ac trans Ci sp]
+25.0 +23.8 93 +34 +34 очень
душно
1010.9 1009.1
00 19.08 штиль 0 7000 м мгла 9/1 <50 м
[Sc Ac trans Ci sp]
+25.4 +23.8 91 +35 +36 очень
душно
1012.1 1010.3 +24.7
03 19.08 Ю 2 12 км мгла 9/3 600 м
[Cu med, cong Ac trans Ci sp]
+30.6 +25.2 73 +44 +51 опасность
перегрева
1012.0 1010.2
06 19.08 Ю 2 18 км мгла 8/1 570 м
[Cu hum Ac trans Ci sp]
+33.4 +24.6 60 +46 +58 опасность
перегрева
1009.8 1008.0
09 19.08 В 3 18 км мгла 8/3 600 м
[Cu med, cong Ac trans Ci sp]
+32.2 +26.0 70 +48 +50 опасность
перегрева
1007.8 1006.0
12 19.08 штиль 0 11 км мгла 9/3 720 м
[Sc diur, vesp Ac trans Ci sp]
+28.9 +25.5 82 +43 +43 опасность
перегрева
1009.2 1007.4 +34.3
15 19.08 штиль 0 12 км мгла 9/4 750 м
[Sc diur, vesp Ac trans Ci sp]
+27.1 +24.6 86 +38 +38 очень
душно
1010.7 1008.9
18 19.08 штиль 0 12 км мгла 9/4 750 м
[Sc diur, vesp Ac trans Ci sp]
+26.6 +24.8 90 +38 +38 очень
душно
1010.1 1008.3
21 19.08 штиль 0 6000 м мгла 9/3 300 м
[Sc Ac trans Ci sp]
+26.0 +24.3 90 +36 +36 очень
душно
1009.7 1007.9
00 20.08 ЮВ 1 6000 м мгла 9/3 1000 м
[Cu hum Ac trans Ci sp]
+25.7 +24.0 90 +35 +36 очень
душно
1010.7 1008.9 +25.2
03 20.08 В 1 4000 м мгла 9/3 570 м
[Cu med, cong Ac trans Ci sp]
+30.4 +25.1 73 +44 +51 опасность
перегрева
1010.9 1009.1
06 20.08 СВ 2 4000 м мгла 9/4 570 м
[Cu med, cong Ac trans Ci sp]
+32.8 +26.0 68 +49 +57 опасность
перегрева
1008.6 1006.8
09 20.08 В 3 7000 м осадки на расстоянии 9/3 500 м
[Cb cap Ac trans Ci sp]
+30.1 +26.2 80 +46 +48 опасность
перегрева
1006.9 1005.1
12 20.08 штиль 0 9000 м мгла 9/3 750 м
[Sc Ac trans Ci sp]
+28.5 +26.0 86 +43 +43 опасность
перегрева
1007.9 1006.1 +33.4
15 20.08 Ю 1 7000 м мгла 9/4 750 м
[Sc Ac trans Ci sp]
+27.4 +24.7 85 +39 +39 очень
душно
1009.7 1007.9
18 20.08 ЮЗ 3 6000 м мгла 9/3 750 м
[Sc Ac trans Ci sp]
+27.0 +24.3 85 +38 +38 очень
душно
1009.3 1007.5
21 20.08 ЮЗ 3 4000 м мгла 8/1 750 м
[Sc Ac trans Ci sp]
+26.2 +23.8 87 +36 +36 очень
душно
1009.0 1007.2
00 21.08 ЮЗ 1 9000 м мгла 9/3 540 м
[Cu hum Ac trans Ci sp]
+26.3 +23.7 86 +36 +37 очень
душно
1010.4 1008.6 +25.7
03 21.08 Ю 2 10 км мгла 9/4 600 м
[Cu med, cong Ac trans Ci sp]
+29.7 +25.1 76 +43 +49 опасность
перегрева
1011.5 1009.7
06 21.08 В 1 10 км мгла 9/4 600 м
[Cu med, cong Ac trans Ci sp]
+32.3 +25.7 68 +47 +56 опасность
перегрева
1009.2 1007.4
09 21.08 В 2 12 км мгла 9/3 600 м
[Cu med, cong Ac trans Ci sp]
+32.3 +26.7 72 +49 +52 опасность
перегрева
1007.2 1005.5
12 21.08 ЮЗ 6 8000 м гроза, ливневой дождь 9/3 500 м
[Cb cap Ac trans Ci sp]
+25.3 +23.4 89 +34 +34 очень
душно
1009.8 1008.0 +33.2 0.0
15 21.08 штиль 0 8000 м мгла {гроза, дождь} 9/1 750 м
[Sc Ac trans Ci sp]
+25.0 +23.5 91 +34 +34 очень
душно
1011.4 1009.6
18 21.08 штиль 0 6000 м мгла {гроза, дождь} 9/1 750 м
[Sc Ac trans Ci sp]
+24.6 +23.4 93 +33 +33 очень
душно
1011.3 1009.5 0.6
21 21.08 штиль 0 6000 м мгла {гроза, дождь} 8/1 150 м
[St Ac trans Ci sp]
+24.2 +23.1 94 +32 +32 очень
душно
1010.3 1008.5
00 22.08 штиль 0 7000 м мгла 9/1 750 м
[Sc Ac trans Ci sp]
+24.8 +23.6 93 +34 +34 очень
душно
1011.6 1009.8 +24.0 0.6

 

Местоположение метеостанции Куантане (Малайзия): широта 3.78 долгота 103.21 высота над уровнем моря 16 м.

В архиве по умолчанию представлена погода в Куантане за последнюю неделю. Архивные данные за месяц целиком и за предыдущие месяцы, начиная с января 2011 года, Вы можете получить, выбрав интересующий диапазон дат из раскрывающегося списка и нажав кнопку "Ввод!".


*Определитесь, кто Вы:
робот инопланетянин человек

Внимание! Время в таблицах - всемирное. Для получения местного времени необходимо прибавить поправку, которая равна 7 ч.

Смотрите также архив погоды в соседних городах и на ближайших метеорологических станциях:

Погода в Куала-Тренггану (Малайзия) (178 км)
Погода в Мерсинге (Малайзия) (198 км)
Погода в Куала-Лумпуре (Малайзия) (198 км)
Погода в Малакке (Малайзия) (199 км)
Погода в Куала-Лумпур аэропорту (Малайзия) (205 км)
Погода на Нагорье Кэмерон (Малайзия) (218 км)
Погода в Аэропорту Сеная (Малайзия) (245 км)
Погода в Ипохе (Малайзия) (250 км)
Погода в Сингапуре (Сингапур) (281 км)
Погода в Ситаване (Малайзия) (283 км)

Пояснения к столбцам:

Ветер - указаны скорость ветра в м/с - средняя за 10 мин, порывы в срок и между сроками (в фигурных скобках) и направление, откуда дует ветер: С - северный, СВ - северо-восточный, В - восточный, ЮВ - юго-восточный, Ю - южный, ЮЗ - юго-западный, З - западный, СЗ - северо-западный.
Видимость - горизонтальная дальность видимости в метрах или километрах. При видимости от 1 до 10 км при отсутствии осадков обычно наблюдается дымка, при ухудшении видимости до 1 км и менее - туман. В сухую погоду видимость может ухудшаться дымом, пылью или мглою.
Явления - указаны атмосферные явления, наблюдавшиеся в срок или в последний час перед сроком; фигурными скобками обозначены явления, наблюдавшиеся между сроками (за 1-3 часа до срока); квадратными скобками обозначены град или гололедные отложения с указанием их диаметра в мм.
Облачность - указаны через наклонную черту общая и нижняя облачность в баллах и высота нижней границы облаков в метрах; квадратными скобками обозначены формы облаков: Ci - перистые, Cs - перисто-слоистые, Cc - перисто-кучевые, Ac - высококучевые, As - высокослоистые, Sc - слоисто-кучевые, Ns - слоисто-дождевые, Cu - кучевые, Cb - кучево-дождевые. Подробнее классификацию облаков см. в Атласе облаков (PDF).
T - Температура воздуха - температура, измеренная на высоте 2 м над землей.
Td - Температура точки росы - температура, при понижении до которой содержащийся в воздухе водяной пар достигнет насыщения.
f - Относительная влажность воздуха - влажноcть воздуха, измеренная на высоте 2 м над землей.
Te - Эффективная температура - температура, которую ощущает одетый по сезону человек в тени. Характеристика душности погоды. При расчете учитывается влияние влажности воздуха и скорости ветра на теплоощущения человека.
Tes - Эффективная температура на солнце - температура, которую ощущает человек, с поправкой на солнечный нагрев. Характеристика знойности погоды. Зависит от высоты солнца над горизонтом, облачности и скорости ветра. Ночью, в пасмурную погоду, а также при ветре 12 м/с и более поправка равна нулю.
P - Атмосферное давление - приведенное к уровню моря атмосферное давление.
Po - Атмосферное давление - измеренное на уровне метеостанции атмосферное давление.
Tmin - Минимальная температура - минимум температуры воздуха на высоте 2 м над землей.
Tmax - Максимальная температура - максимум температуры воздуха на высоте 2 м над землей.
R - Количество осадков - Количество выпавших осадков за период времени, мм. При наведении курсора мыши на число - период времени, за который выпало указанное количество осадков.
R24 - Количество осадков - Количество выпавших осадков за 24 часа, мм.
S - Снежный покров - Высота снежного покрова, см. При наведении курсора мыши на число - состояние снежного покрова и степень покрытия местности в баллах.